#timestamp,LO_Frequency,Hit,StdDev 
1632506415.6,286046996.2,N
1632506435.4,286046996.1,N
1632506455.2,286046995.0,N
1632506475.1,286046997.5,N
1632506476.0,286046997.5,N
1632506495.8,286046997.7,N
1632506515.7,286046997.6,N
1632506535.5,286046996.9,N
1632506555.3,286046996.5,N
1632506575.2,286046996.7,N
1632506595.0,286046996.8,N
1632506595.9,286046996.8,N
1632506615.8,286046997.0,N
1632506635.6,286046997.0,N
1632506655.4,286046999.1,N
1632506675.3,286046997.8,N
1632506695.1,286046997.2,N
1632506715.8,286046994.9,Y
1632506735.7,286047000.2,P
1632506755.5,286047000.1,N
1632506775.4,286047002.8,N
1632506795.2,286047000.0,N
1632506815.0,286047002.4,N
1632506815.9,286047002.4,N
1632506835.8,286047002.4,N
1632506855.6,286046999.9,N
1632506875.5,286047002.7,N
1632506895.3,286047000.3,N
1632506915.1,286046999.3,N
1632506935.9,286046998.4,N
1632506955.7,286046998.4,N
1632506975.5,286046998.9,N
1632506995.4,286046996.6,N
1632507015.2,286046998.9,N
1632507035.1,286046999.3,N
1632507036.0,286046999.3,N
1632507055.8,286046998.7,N
1632507075.6,286046998.4,N
1632507095.5,286046998.6,N
1632507115.3,286046998.6,N
1632507135.1,286046998.3,N
1632507155.9,286046998.7,N
1632507175.7,286046998.4,N
1632507195.6,286046998.5,N
1632507215.4,286046999.5,N
1632507235.2,286046997.6,N
1632507255.1,286046998.0,N
1632507256.0,286046998.0,N
1632507275.8,286046994.9,Y
1632507295.7,286046997.4,P
1632507315.5,286046995.3,P
1632507335.3,286046996.9,N
1632507355.2,286046999.3,N
1632507375.0,286046998.2,N
1632507375.9,286046998.2,N
1632507395.7,286047001.0,N
1632507415.6,286047001.1,N
1632507435.4,286047000.6,N
1632507455.3,286047000.2,N
1632507475.1,286046998.3,N
1632507476.0,286046998.3,N
1632507495.8,286047001.0,N
1632507515.7,286047000.6,N
1632507535.5,286047000.4,N
1632507555.4,286047001.0,N
1632507575.2,286046998.5,N
1632507595.0,286046996.5,N
1632507595.9,286046996.5,N
1632507615.8,286046996.5,N
1632507635.6,286046999.3,N
1632507655.5,286046998.2,N
1632507675.3,286046998.6,N
1632507695.1,286047000.7,N
1632507715.9,286047000.8,N
1632507735.7,286047000.0,N
1632507755.6,286047000.3,N
1632507775.4,286047000.2,N
1632507795.2,286046999.7,N
1632507815.1,286046999.9,N
1632507816.0,286046999.9,N
1632507835.8,286046999.7,N
1632507855.6,286047000.5,N
1632507875.5,286046998.8,N
1632507895.3,286046999.3,N
1632507915.2,286046998.1,N
1632507935.9,286047000.7,N
1632507955.7,286047000.2,N
1632507975.6,286047000.2,N
1632507995.4,286047000.7,N
1632508015.2,286047000.8,N
1632508035.1,286047000.7,N
1632508036.0,286047000.7,N
1632508055.8,286047000.3,N
1632508075.7,286047002.8,N
1632508095.5,286047002.8,N
1632508115.3,286046998.1,N
1632508135.2,286047000.6,N
1632508155.0,286047000.9,N
1632508155.9,286047000.9,N
1632508175.8,286046998.5,N
1632508195.6,286046998.2,N
1632508215.4,286047001.0,N
1632508235.3,286046999.9,N
1632508255.1,286047000.5,N
1632508275.8,286046999.8,N
1632508295.7,286047000.1,N
1632508315.5,286047002.8,N
1632508335.4,286047004.3,Y
1632508355.2,286047002.5,P
1632508375.0,286047000.1,N
1632508375.9,286047000.1,N
1632508395.8,286046998.5,N
1632508415.6,286046999.9,N
1632508435.5,286047001.2,N
1632508455.3,286046998.2,N
1632508475.1,286047001.2,N
1632508495.9,286047000.0,N
1632508515.7,286047000.6,N
1632508535.5,286047001.2,N
1632508555.4,286046998.2,N
1632508575.2,286046998.5,N
1632508595.1,286047000.7,N
1632508596.0,286047000.7,N
1632508615.8,286047001.0,N
1632508635.6,286047000.5,N
1632508655.5,286046998.2,N
1632508675.3,286047001.0,N
1632508695.1,286046999.8,N
1632508715.9,286047000.5,N
1632508735.7,286047000.5,N
1632508755.6,286046998.7,N
1632508775.4,286046999.2,N
1632508795.2,286046999.6,N
1632508815.1,286046996.5,Y
1632508816.0,286046996.5,P
1632508835.8,286046999.4,N
1632508855.7,286046998.8,N
1632508875.5,286046998.3,N
1632508895.3,286047001.1,N
1632508915.2,286047000.6,N
1632508935.0,286047000.2,N
1632508935.9,286047000.2,N
1632508955.8,286047000.2,N
1632508975.6,286046999.9,N
1632508995.4,286047002.8,N
1632509015.3,286047000.2,N
1632509035.1,286047002.7,N
1632509055.9,286047002.7,N
1632509075.7,286047002.3,N
1632509095.5,286047000.3,N
1632509115.4,286046999.7,N
1632509135.2,286047000.0,N
1632509155.0,286046999.7,N
1632509155.9,286046999.7,N
1632509175.8,286047002.8,N
1632509195.6,286047001.0,N
1632509215.5,286047000.6,N
1632509235.3,286047000.0,N
1632509255.1,286047000.0,N
1632509275.9,286047000.9,N
1632509295.7,286047000.9,N
1632509315.5,286046999.7,N
1632509335.4,286047002.8,N
1632509355.2,286047002.8,N
1632509375.1,286047002.5,N
1632509376.0,286047002.5,N
1632509395.8,286047001.6,N
1632509415.6,286047004.4,Y
1632509435.5,286047001.8,P
1632509455.3,286047004.0,P
1632509475.2,286047001.6,N
1632509495.9,286047004.4,Y
1632509515.7,286047000.5,P
1632509535.6,286047000.0,N
1632509555.4,286047000.3,N
1632509575.2,286047001.2,N
1632509595.1,286046998.6,N
1632509596.0,286046998.6,N
1632509615.8,286047000.5,N
1632509635.7,286047000.0,N
1632509655.5,286047000.7,N
1632509675.3,286047000.7,N
1632509695.2,286047000.3,N
1632509715.0,286047001.2,N
1632509715.9,286047001.2,N
1632509735.8,286047001.1,N
1632509755.6,286047000.8,N
1632509775.4,286046998.5,N
1632509795.3,286046998.2,N
1632509815.1,286047001.2,N
1632509835.9,286047001.0,N
1632509855.7,286047000.8,N
1632509875.5,286046998.8,N
1632509895.4,286046998.2,N
1632509915.2,286047001.2,N
1632509965.1,286046998.4,E
1632509975.0,286047001.2,N
1632509975.9,286047001.2,P
1632509995.8,286047000.9,P
